Back to catalog

COSMOS 1341 DEB

LostHEO
NORAD 33530·DEBRIS·🇷🇺 Russia

Launched Mar 3, 1982 from Plesetsk Cosmodrome

Loading…

Next Passes (next 24 hours)

TLE

StaleSource: Space-Track

Epoch: May 24, 2008, 04:31 UTC

1 33530U 82016F   08145.18825257  .00000182  00000-0  10000-3 0  9992
2 33530  65.9543  75.5281 6197605 152.4681 262.9749  1.99208402 13971

Track COSMOS 1341 DEB in real time with AllMySat

Download on the App Store